Location: *
(51.1248°S, 108.4023°W)
Time: 22:47:44
(UTC+00:00)

Cosmos 2263 - Pass Details

Date: 15 June 2021
Orbit: 832 x 865 km, 70.9° (Epoch: 04 August)

Event Time Altitude Azimuth Distance (km) Brightness Sun altitude
Exits shadow 12:34:36 54° 296° (WNW) 1,022 4.3 -24.0°
Maximum altitude 12:35:47 70° 237° (WSW) 903 4.1 -23.9°
Drops below altitude 10° 12:41:30 10° 153° (SSE) 2,494 6.8 -23.0°
Sets 12:44:00 0° 150° (SSE) 3,439 7.6 -22.6°
